This is the latest recevied weather packets stored in our database for station/object N5TSS. If no packets are shown the sender has not sent any weather packets the latest 10 day(s).
| Time | Temp. | Humidity | Pressure | Rain* | Wind** | Luminosity | Snow |
|---|---|---|---|---|---|---|---|
| 1777833614 | 26.67° C | 37% | 1022.4 hPa | 0 mm | - | - | - |
| 1777833310 | 26.67° C | 39% | 1022.4 hPa | 0 mm | - | - | - |
| 1777833008 | 26.67° C | 39% | 1022.4 hPa | 0 mm | - | - | - |
| 1777832706 | 26.11° C | 39% | 1022.4 hPa | 0 mm | - | - | - |
| 1777832403 | 26.67° C | 38% | 1022.8 hPa | 0 mm | - | - | - |
| 1777832101 | 26.11° C | 38% | 1022.8 hPa | 0 mm | - | - | - |
| 1777831796 | 26.11° C | 39% | 1022.8 hPa | 0 mm | - | - | - |
| 1777831494 | 25.56° C | 42% | 1023.1 hPa | 0 mm | - | - | - |
| 1777831191 | 25.56° C | 40% | 1023.1 hPa | 0 mm | - | - | - |
| 1777830889 | 25.56° C | 41% | 1023.1 hPa | 0 mm | - | - | - |
| 1777830585 | 26.11° C | 42% | 1023.5 hPa | 0 mm | - | - | - |
| 1777830283 | 25.56° C | 42% | 1023.5 hPa | 0 mm | - | - | - |
| 1777829978 | 25.56° C | 41% | 1023.5 hPa | 0 mm | - | - | - |
| 1777829674 | 25.56° C | 40% | 1023.5 hPa | 0 mm | - | - | - |
| 1777829371 | 25.56° C | 42% | 1023.8 hPa | 0 mm | - | - | - |
| 1777829068 | 25° C | 44% | 1023.8 hPa | 0 mm | - | - | - |
| 1777828765 | 25.56° C | 44% | 1023.8 hPa | 0 mm | - | - | - |
| 1777828462 | 25.56° C | 45% | 1023.8 hPa | 0 mm | - | - | - |
| 1777828159 | 25° C | 45% | 1023.8 hPa | 0 mm | - | - | - |
| 1777827855 | 25° C | 43% | 1024.1 hPa | 0 mm | - | - | - |
| 1777827552 | 24.44° C | 45% | 1024.1 hPa | 0 mm | - | - | - |
| 1777827250 | 25° C | 44% | 1024.1 hPa | 0 mm | - | - | - |
| 1777826946 | 25.56° C | 47% | 1024.1 hPa | 0 mm | - | - | - |
| 1777826643 | 25.56° C | 48% | 1024.1 hPa | 0 mm | - | - | - |
| 1777826339 | 24.44° C | 46% | 1024.1 hPa | 0 mm | - | - | - |
* Rain latest hour (hover to see other rain measurements)
** Current wind speed in m/s (hover to see current wind gust speed)